FBD505 EFHK-ULOO

Flight info

Callsign FBD505
Flight time 0h 49m
Altitude 23000
Route ROPA3S ROPAM DCT NOTAR NOTA1G
Aircraft AT46/M-SDFGIRY/S

Departure

Time 2026-04-23 18:31
Airport Helsinki Vantaa Airport (EFHK)

Arrival

Time 2026-04-23 19:20
Airport Princess Olga Pskov International Airport (ULOO)
Time Latitude Longitude Altitude Speed Heading
2026-04-23 17:52 60.31972 24.96487 0 ft 0 kts 320°
2026-04-23 18:22 60.31979 24.96476 160 ft 0 kts 319°
2026-04-23 18:22 60.32004 24.96428 160 ft 5 kts 316°
2026-04-23 18:23 60.32016 24.96400 160 ft 2 kts 294°
2026-04-23 18:23 60.31926 24.96171 160 ft 13 kts 231°
2026-04-23 18:24 60.31849 24.95792 160 ft 26 kts 230°
2026-04-23 18:24 60.31728 24.95520 160 ft 23 kts 229°
2026-04-23 18:24 60.31635 24.95316 160 ft 17 kts 227°
2026-04-23 18:25 60.31380 24.94749 159 ft 26 kts 226°
2026-04-23 18:25 60.31277 24.94526 159 ft 18 kts 229°
2026-04-23 18:25 60.31142 24.94214 159 ft 38 kts 227°
2026-04-23 18:25 60.31042 24.93878 158 ft 19 kts 283°
2026-04-23 18:26 60.31050 24.93839 158 ft 0 kts 301°
2026-04-23 18:29 60.31055 24.93822 158 ft 12 kts 301°
2026-04-23 18:29 60.31167 24.93727 156 ft 16 kts 32°
2026-04-23 18:29 60.31192 24.93776 157 ft 0 kts 49°
2026-04-23 18:30 60.31243 24.93879 157 ft 39 kts 44°
2026-04-23 18:30 60.31589 24.94603 157 ft 104 kts 47°
2026-04-23 18:31 60.32171 24.95937 438 ft 130 kts 44°
2026-04-23 18:31 60.32841 24.97221 1032 ft 139 kts 39°
2026-04-23 18:31 60.33561 24.98638 1649 ft 144 kts 40°
2026-04-23 18:31 60.34264 25.00085 2460 ft 141 kts 42°
2026-04-23 18:32 60.34894 25.01551 3265 ft 136 kts 44°
2026-04-23 18:32 60.35501 25.03007 3986 ft 143 kts 43°
2026-04-23 18:32 60.36264 25.04807 3994 ft 191 kts 45°
2026-04-23 18:32 60.37198 25.07029 4002 ft 223 kts 45°
2026-04-23 18:33 60.38234 25.09475 4245 ft 229 kts 46°
2026-04-23 18:33 60.39131 25.12142 4538 ft 233 kts 60°
2026-04-23 18:33 60.39343 25.15390 5035 ft 235 kts 97°
2026-04-23 18:33 60.38715 25.18291 5982 ft 217 kts 116°
2026-04-23 18:34 60.37975 25.20800 6845 ft 201 kts 117°
2026-04-23 18:34 60.37249 25.23072 7640 ft 190 kts 118°
2026-04-23 18:34 60.36490 25.25306 8186 ft 196 kts 119°
2026-04-23 18:34 60.35687 25.27565 8765 ft 200 kts 120°
2026-04-23 18:35 60.34844 25.29811 9311 ft 204 kts 128°
2026-04-23 18:35 60.33562 25.31166 9807 ft 217 kts 173°
2026-04-23 18:35 60.32105 25.30669 10262 ft 213 kts 215°
2026-04-23 18:35 60.31121 25.28659 10558 ft 196 kts 253°
2026-04-23 18:36 60.30276 25.26443 10845 ft 212 kts 221°
2026-04-23 18:36 60.28952 25.25012 11105 ft 219 kts 214°
2026-04-23 18:36 60.27587 25.23604 11440 ft 221 kts 215°
2026-04-23 18:36 60.26255 25.22136 11707 ft 222 kts 218°
2026-04-23 18:37 60.24940 25.20526 12094 ft 221 kts 221°
2026-04-23 18:37 60.23653 25.18804 12497 ft 222 kts 224°
2026-04-23 18:37 60.22375 25.17025 12879 ft 225 kts 224°
2026-04-23 18:37 60.21081 25.15230 13274 ft 227 kts 225°
2026-04-23 18:38 60.19777 25.13416 13656 ft 229 kts 225°
2026-04-23 18:38 60.18462 25.11581 13986 ft 231 kts 225°
2026-04-23 18:38 60.17130 25.09748 14314 ft 233 kts 225°
2026-04-23 18:38 60.15779 25.07912 14629 ft 235 kts 225°
2026-04-23 18:39 60.14419 25.06074 14962 ft 237 kts 225°
2026-04-23 18:39 60.13064 25.04245 15274 ft 239 kts 225°
2026-04-23 18:39 60.11679 25.02380 15587 ft 241 kts 225°
2026-04-23 18:39 60.10285 25.00502 15890 ft 242 kts 225°
2026-04-23 18:40 60.08881 24.98616 16189 ft 244 kts 225°
2026-04-23 18:40 60.07466 24.96718 16465 ft 246 kts 225°
2026-04-23 18:40 60.06029 24.94828 16753 ft 251 kts 219°
2026-04-23 18:40 60.04288 24.93931 17018 ft 269 kts 180°
2026-04-23 18:41 60.02493 24.94876 17287 ft 267 kts 143°
2026-04-23 18:41 60.01179 24.97264 17539 ft 249 kts 114°
2026-04-23 18:41 60.00166 25.00079 17793 ft 251 kts 114°
2026-04-23 18:41 59.99117 25.02889 18059 ft 254 kts 116°
2026-04-23 18:42 59.97949 25.05550 18290 ft 262 kts 125°
2026-04-23 18:42 59.96522 25.07916 18514 ft 271 kts 137°
2026-04-23 18:42 59.94921 25.09966 18742 ft 275 kts 142°
2026-04-23 18:42 59.93269 25.11903 18971 ft 277 kts 143°
2026-04-23 18:43 59.91599 25.13841 19201 ft 278 kts 143°
2026-04-23 18:43 59.89925 25.15792 19435 ft 279 kts 142°
2026-04-23 18:43 59.88266 25.17807 19626 ft 280 kts 140°
2026-04-23 18:43 59.86620 25.19876 19810 ft 280 kts 140°
2026-04-23 18:44 59.84964 25.21956 19994 ft 282 kts 140°
2026-04-23 18:44 59.83304 25.24026 20179 ft 283 kts 140°
2026-04-23 18:44 59.81652 25.26082 20350 ft 284 kts 140°
2026-04-23 18:44 59.79974 25.28164 20528 ft 285 kts 140°
2026-04-23 18:45 59.78292 25.30250 20696 ft 286 kts 140°
2026-04-23 18:45 59.76599 25.32346 20856 ft 287 kts 140°
2026-04-23 18:45 59.74905 25.34441 21018 ft 288 kts 140°
2026-04-23 18:45 59.73204 25.36544 21182 ft 289 kts 140°
2026-04-23 18:46 59.71496 25.38646 21334 ft 289 kts 140°
2026-04-23 18:46 59.69782 25.40759 21478 ft 290 kts 140°
2026-04-23 18:46 59.68065 25.42873 21629 ft 291 kts 140°
2026-04-23 18:46 59.66364 25.44961 21781 ft 292 kts 140°
2026-04-23 18:47 59.64633 25.47085 21953 ft 293 kts 140°
2026-04-23 18:47 59.62895 25.49217 22104 ft 294 kts 140°
2026-04-23 18:47 59.61156 25.51343 22271 ft 295 kts 140°
2026-04-23 18:47 59.59405 25.53486 22435 ft 296 kts 140°
2026-04-23 18:48 59.57654 25.55624 22575 ft 297 kts 140°
2026-04-23 18:48 59.55886 25.57778 22696 ft 299 kts 140°
2026-04-23 18:48 59.54112 25.59940 22790 ft 302 kts 140°
2026-04-23 18:48 59.52309 25.62126 22831 ft 307 kts 140°
2026-04-23 18:49 59.50475 25.64342 22849 ft 312 kts 140°
2026-04-23 18:49 59.48616 25.66591 22860 ft 316 kts 141°
2026-04-23 18:49 59.46726 25.68870 22855 ft 321 kts 141°
2026-04-23 18:49 59.44840 25.71145 22861 ft 323 kts 141°
2026-04-23 18:50 59.43545 25.72705 22863 ft 324 kts 141°
2026-04-23 18:50 59.40983 25.75818 22862 ft 332 kts 140°
2026-04-23 18:50 59.39001 25.78256 22863 ft 341 kts 141°
2026-04-23 18:50 59.36971 25.80746 22864 ft 348 kts 141°
2026-04-23 18:51 59.34888 25.83249 22861 ft 354 kts 142°
2026-04-23 18:51 59.32773 25.85777 22864 ft 358 kts 142°
2026-04-23 18:51 59.30644 25.88318 22862 ft 360 kts 142°
2026-04-23 18:51 59.28538 25.90810 22860 ft 357 kts 142°
2026-04-23 18:52 59.26413 25.93305 22862 ft 355 kts 142°
2026-04-23 18:52 59.24313 25.95807 22861 ft 353 kts 141°
2026-04-23 18:52 59.22216 25.98317 22860 ft 352 kts 141°
2026-04-23 18:52 59.20134 26.00807 22859 ft 350 kts 141°
2026-04-23 18:53 59.18056 26.03272 22860 ft 349 kts 142°
2026-04-23 18:53 59.15978 26.05720 22864 ft 349 kts 141°
2026-04-23 18:53 59.13910 26.08169 22865 ft 348 kts 141°
2026-04-23 18:53 59.11846 26.10623 22863 ft 347 kts 141°
2026-04-23 18:54 59.09811 26.13042 22864 ft 347 kts 141°
2026-04-23 18:54 59.07763 26.15490 22863 ft 346 kts 141°
2026-04-23 18:54 59.05706 26.17932 22865 ft 346 kts 141°
2026-04-23 18:54 59.03646 26.20353 22867 ft 346 kts 141°
2026-04-23 18:55 59.01591 26.22764 22865 ft 346 kts 141°
2026-04-23 18:55 58.99528 26.25180 22862 ft 346 kts 141°
2026-04-23 18:55 58.97475 26.27585 22862 ft 346 kts 141°
2026-04-23 18:55 58.95411 26.29997 22865 ft 346 kts 142°
2026-04-23 18:56 58.94050 26.31588 22866 ft 346 kts 142°
2026-04-23 18:56 58.91324 26.34764 22863 ft 346 kts 142°
2026-04-23 18:56 58.89260 26.37165 22864 ft 346 kts 142°
2026-04-23 18:56 58.87201 26.39558 22864 ft 346 kts 142°
2026-04-23 18:57 58.85139 26.41951 22863 ft 346 kts 142°
2026-04-23 18:57 58.83080 26.44339 22866 ft 345 kts 141°
2026-04-23 18:57 58.81018 26.46726 22866 ft 346 kts 142°
2026-04-23 18:57 58.78950 26.49115 22864 ft 346 kts 142°
2026-04-23 18:58 58.76888 26.51496 22866 ft 346 kts 142°
2026-04-23 18:58 58.74818 26.53881 22864 ft 346 kts 142°
2026-04-23 18:58 58.72778 26.56226 22861 ft 347 kts 142°
2026-04-23 18:58 58.70708 26.58605 22861 ft 346 kts 142°
2026-04-23 18:59 58.68643 26.60974 22857 ft 346 kts 142°
2026-04-23 18:59 58.66575 26.63347 22862 ft 346 kts 142°
2026-04-23 18:59 58.64509 26.65711 22859 ft 346 kts 142°
2026-04-23 18:59 58.62439 26.68071 22866 ft 346 kts 142°
2026-04-23 19:00 58.60373 26.70426 22866 ft 346 kts 142°
2026-04-23 19:00 58.58333 26.72756 22863 ft 346 kts 142°
2026-04-23 19:00 58.56258 26.75103 22857 ft 346 kts 142°
2026-04-23 19:00 58.54196 26.77460 22858 ft 346 kts 142°
2026-04-23 19:01 58.52123 26.79803 22860 ft 346 kts 142°
2026-04-23 19:01 58.50057 26.82150 22862 ft 346 kts 142°
2026-04-23 19:01 58.47986 26.84489 22866 ft 346 kts 142°
2026-04-23 19:01 58.45915 26.86823 22862 ft 346 kts 142°
2026-04-23 19:02 58.44543 26.88377 22859 ft 346 kts 142°
2026-04-23 19:02 58.41769 26.91500 22860 ft 346 kts 142°
2026-04-23 19:02 58.39704 26.93833 22857 ft 345 kts 142°
2026-04-23 19:02 58.37658 26.96128 22861 ft 345 kts 142°
2026-04-23 19:03 58.35591 26.98449 22865 ft 345 kts 142°
2026-04-23 19:03 58.33522 27.00767 22861 ft 345 kts 142°
2026-04-23 19:03 58.31452 27.03083 22859 ft 345 kts 142°
2026-04-23 19:03 58.29380 27.05400 22859 ft 345 kts 142°
2026-04-23 19:04 58.27313 27.07708 22814 ft 346 kts 142°
2026-04-23 19:04 58.25183 27.10076 22277 ft 363 kts 143°
2026-04-23 19:04 58.22957 27.12529 21743 ft 376 kts 143°
2026-04-23 19:04 58.20705 27.15020 21231 ft 384 kts 143°
2026-04-23 19:05 58.18376 27.17594 20719 ft 390 kts 144°
2026-04-23 19:05 58.16021 27.20196 20213 ft 394 kts 144°
2026-04-23 19:05 58.13664 27.22793 19721 ft 386 kts 144°
2026-04-23 19:05 58.11361 27.25329 19250 ft 381 kts 143°
2026-04-23 19:06 58.09093 27.27838 18776 ft 376 kts 144°
2026-04-23 19:06 58.06850 27.30309 18306 ft 371 kts 144°
2026-04-23 19:06 58.04626 27.32755 17804 ft 367 kts 144°
2026-04-23 19:06 58.03171 27.34357 17451 ft 365 kts 144°
2026-04-23 19:07 58.00282 27.37520 16774 ft 361 kts 144°
2026-04-23 19:07 57.98117 27.39877 16277 ft 358 kts 144°
2026-04-23 19:07 57.95976 27.42216 15791 ft 355 kts 144°
2026-04-23 19:07 57.93849 27.44538 15323 ft 352 kts 144°
2026-04-23 19:08 57.91743 27.46832 14863 ft 348 kts 145°
2026-04-23 19:08 57.89653 27.49108 14415 ft 345 kts 145°
2026-04-23 19:08 57.88283 27.50596 14120 ft 343 kts 145°
2026-04-23 19:08 57.86222 27.52831 13681 ft 340 kts 145°
2026-04-23 19:09 57.84230 27.55120 13186 ft 330 kts 136°
2026-04-23 19:09 57.82695 27.58125 12669 ft 312 kts 122°
2026-04-23 19:09 57.81082 27.62538 12043 ft 307 kts 111°
2026-04-23 19:09 57.80117 27.66071 11591 ft 303 kts 108°
2026-04-23 19:10 57.79492 27.68474 11284 ft 302 kts 108°
2026-04-23 19:10 57.78563 27.71946 10850 ft 302 kts 110°
2026-04-23 19:10 57.77577 27.75420 10425 ft 302 kts 111°
2026-04-23 19:10 57.76568 27.78858 10017 ft 301 kts 111°
2026-04-23 19:11 57.75579 27.82259 9604 ft 293 kts 111°
2026-04-23 19:11 57.74613 27.85603 9127 ft 291 kts 111°
2026-04-23 19:11 57.73651 27.88921 8680 ft 288 kts 112°
2026-04-23 19:11 57.72700 27.92189 8241 ft 285 kts 112°
2026-04-23 19:12 57.71755 27.95426 7810 ft 280 kts 114°
2026-04-23 19:12 57.70485 27.98172 7359 ft 281 kts 135°
2026-04-23 19:12 57.69196 28.00819 6925 ft 273 kts 122°
2026-04-23 19:12 57.68091 28.03633 6517 ft 271 kts 121°
2026-04-23 19:13 57.67013 28.06493 6101 ft 268 kts 121°
2026-04-23 19:13 57.65958 28.09353 5680 ft 265 kts 121°
2026-04-23 19:13 57.64926 28.12160 5206 ft 260 kts 121°
2026-04-23 19:13 57.63916 28.14918 4684 ft 255 kts 120°
2026-04-23 19:14 57.62930 28.17622 4136 ft 244 kts 120°
2026-04-23 19:14 57.62015 28.20104 3599 ft 222 kts 120°
2026-04-23 19:14 57.61163 28.22399 3084 ft 208 kts 120°
2026-04-23 19:14 57.60635 28.24684 2601 ft 183 kts 86°
2026-04-23 19:15 57.61056 28.26766 2155 ft 181 kts 40°
2026-04-23 19:15 57.62052 28.28247 1941 ft 187 kts 33°
2026-04-23 19:15 57.63119 28.29672 1866 ft 189 kts 29°
2026-04-23 19:15 57.64262 28.30764 2019 ft 182 kts 20°
2026-04-23 19:16 57.65461 28.31499 2091 ft 183 kts 12°
2026-04-23 19:16 57.66737 28.31880 2064 ft 185 kts 354°
2026-04-23 19:16 57.67922 28.32161 2221 ft 154 kts 27°
2026-04-23 19:17 57.69438 28.33814 2226 ft 118 kts 19°
2026-04-23 19:17 57.70278 28.34422 2173 ft 135 kts 17°
2026-04-23 19:17 57.71091 28.35047 2276 ft 114 kts 20°
2026-04-23 19:17 57.71761 28.35492 2111 ft 94 kts 12°
2026-04-23 19:18 57.72403 28.35889 1914 ft 102 kts 16°
2026-04-23 19:18 57.73064 28.36302 1598 ft 104 kts 13°
2026-04-23 19:18 57.73736 28.36695 1260 ft 98 kts 15°
2026-04-23 19:18 57.74399 28.37102 960 ft 108 kts 15°
2026-04-23 19:19 57.75801 28.37974 681 ft 108 kts 14°
2026-04-23 19:19 57.76520 28.38388 536 ft 108 kts 14°
2026-04-23 19:20 57.77842 28.39203 167 ft 96 kts 17°
2026-04-23 19:20 57.78321 28.39489 157 ft 36 kts 19°
2026-04-23 19:20 57.78589 28.39652 156 ft 37 kts 18°
2026-04-23 19:20 57.78794 28.39777 156 ft 26 kts 22°
2026-04-23 19:21 57.78932 28.39871 158 ft 20 kts 15°
2026-04-23 19:21 57.79240 28.40005 161 ft 13 kts 351°
2026-04-23 19:21 57.79303 28.39918 160 ft 10 kts 316°
2026-04-23 19:22 57.79346 28.39833 160 ft 8 kts 306°
2026-04-23 19:22 57.79371 28.39787 160 ft 7 kts 324°
2026-04-23 19:22 57.79421 28.39706 160 ft 0 kts 316°
2026-04-23 19:23 57.79422 28.39705 160 ft 2 kts 316°
2026-04-23 19:23 57.79511 28.39530 160 ft 23 kts 313°
2026-04-23 19:24 57.79608 28.39239 160 ft 7 kts 250°
2026-04-23 19:24 57.79617 28.39189 160 ft 5 kts 312°
2026-04-23 19:24 57.79637 28.39203 160 ft 4 kts 55°
2026-04-23 19:25 57.79644 28.39224 160 ft 0 kts 56°